Regional Weather Roundup
Issued by NWS Wakefield, VA

Home | Current Version | Previous Version | Text Only | Print | Product List | Glossary On
Versions: 1 2 3 4 5 6 7 8 9 10 11 12 13 14 15 16 17 18 19 20 21 22 23 24 25 26 27 28 29 30 31 32 33 34 35 36 37 38 39 40 41 42 43 44 45 46 47 48 49 50
000
ASUS41 KAKQ 302210
RWRAKQ

REGIONAL WEATHER ROUNDUP
NATIONAL WEATHER SERVICE WAKEFIELD VA
600 PM EDT TUE SEP 30 2014

Note: "fair" indicates few or no clouds below 12,000 feet with no
significant weather and/or obstructions to visibility. * = Denotes
station may not report precipitation (e.g., rain,snow,etc.),
thunder or fog.

VAZ042-051-052>054-056-302300-
NORTHERN VIRGINIA

CITY           SKY/WX    TMP DP  RH WIND       PRES   REMARKS
WASH NATIONAL  MOCLDY    78  60  53 S7        29.87S
DULLES         PTCLDY    71  61  70 S6        29.87F
FORT BELVOIR   CLEAR     72  62  71 S2        29.87F
QUANTICO       PTCLDY    72  62  71 S3        29.88S
FREDERICKSBRG* CLEAR     74  62  66 CALM      29.86F
STAFFORD*      CLEAR     72  62  69 CALM      29.91F
WARRENTON      CLEAR     72  67  83 CALM      29.87S
CULPEPER*      MOCLDY    72  63  73 CALM      29.89R
MANASSAS*      CLEAR     72  64  78 SE7       29.87F
LEESBURG*      CLEAR     72  64  78 SW6       29.89R
WINCHESTER     MOSUNNY   72  61  68 SE6       29.85S
FRONT ROYAL*   CLEAR     72  61  68 CALM      29.84S
LURAY*         CLEAR     73  63  68 NE3       29.85S
$$

VAZ048-049-060>072-079>083-302300-
CENTRAL AND SOUTH CENTRAL VIRGINIA...AND NORTH CENTRAL NORTH CAROLINA

CITY           SKY/WX    TMP DP  RH WIND       PRES   REMARKS
RICHMOND       PTCLDY    71  62  73 E6        29.87S
CHESTERFIELD*  PTCLDY   N/A N/A N/A SE7       29.88S
PETERSBURG*    PTSUNNY   72  60  66 E3        29.88R
HANOVER        CLEAR     72  62  71 E5        29.89S
TAPPAHANNOCK*  CLEAR     74  58  57 CALM      29.88S
CHARLOTTSVILLE MOSUNNY   68  62  81 S6        29.89R
ORANGE*        CLOUDY    70  61  73 CALM      29.90S
LOUISA*        CLOUDY    68  63  83 CALM      29.88S
FARMVILLE*     SUNNY     73  63  68 E5        29.86S
CREWE*         MOCLDY    68  62  79 CALM      29.88S
FORT PICKETT*  CLEAR     69  63  82 NE5       29.88S
LUNENBURG*     CLEAR     69  62  77 CALM      29.87S
SOUTH HILL*    SUNNY     73  64  73 CALM      29.93R
LAWRENCEVILLE* CLEAR     69  65  86 CALM      29.87S
ROANOKE RAPIDS MOCLDY    70  63  78 N3        29.88S
RALEIGH        MOSUNNY   73  62  68 E5        29.88R
$$

VAZ088>098-302300-
SOUTHEAST VIRGINIA

CITY           SKY/WX    TMP DP  RH WIND       PRES   REMARKS
NORFOLK        CLEAR     72  62  71 NE7       29.87R
VIRGINIA BEACH PTCLDY    74  61  63 NE8       29.86S
NORFOLK NAVAL  PTCLDY    73  64  73 E9        29.88S
WEST POINT*    CLEAR     75  61  61 W3        29.88S
NEWPORT NEWS   CLEAR     76  61  59 E5        29.87S
LANGLEY AFB    CLEAR     72  66  82 E8        29.88R
FORT EUSTIS    CLEAR     75  75 100 SE7       29.85S
WILLIAMSBURG*  CLEAR     75  66  73 CALM      29.87S
HR EXEC AP*    CLEAR     73  63  68 NE5       29.88R
FRANKLIN*      PTCLDY    75  61  60 N3        29.86S
WAKEFIELD      CLEAR     73  66  78 CALM      29.86S
$$

VAZ020-022-025-037-045-302300-
WEST CENTRAL AND SOUTHWEST VIRGINIA

CITY           SKY/WX    TMP DP  RH WIND       PRES   REMARKS
STAUNTON*      PTSUNNY   73  58  57 S7        29.88S HAZE
HOT SPRINGS VA MOSUNNY   67  28  23 W6        29.99S
LYNCHBURG      SUNNY     73  65  75 SE7       29.88S
DANVILLE       SUNNY     77  64  64 VRB3      29.87R
SOUTH BOSTON*  NOT AVBL
MARTINSVILLE   PTSUNNY   80  61  52 SE3       29.89S
ROANOKE        MOSUNNY   80  51  36 W6G28     29.89R
BLACKSBURG     SUNNY     75  57  53 NW3       29.94S
DUBLIN*        SUNNY     75  55  49 W3        29.94S
MARION*        MOSUNNY   73  51  46 W8        29.98R
HILLSVILLE*    MOSUNNY   72  54  52 NW8       29.96S
RICHLANDS*     CLEAR     73  52  46 NW5       29.97S
WISE*          SUNNY     73  46  38 W5        29.98S
ABINGDON*      SUNNY     76  55  48 N3        29.94S
$$

MDZ021>025-VAZ099-100-302300-
SOUTHERN MARYLAND AND THE DELMARVA PENINSULA

CITY           SKY/WX    TMP DP  RH WIND       PRES   REMARKS
PATUXENT RIVER PTCLDY    73  61  65 SE5       29.86S
BAY BRIDGE APT   N/A     72  61  68 CALM      29.87S
LEONARDTOWN    CLEAR     72  61  68 CALM      29.88F
DOVER          MOCLDY    70  64  81 SE7       29.87R
GEORGETOWN     CLEAR     71  61  70 E13       29.89R
EASTON         MOCLDY    77  64  65 NW6       29.90S
CAMBRIDGE      PTCLDY    73  63  68 CALM      29.86S
SALISBURY      CLEAR     74  62  66 E8        29.87S
OCEAN CITY     CLEAR     70  62  76 E10       29.88F
WALLOPS ISLAND CLEAR     72  64  76 E8        29.88S
ACCOMACK*      CLEAR     70  61  73 E3        29.87S
$$

NCZ012>017-030>032-302300-
EASTERN NORTH CAROLINA

CITY           SKY/WX    TMP DP  RH WIND       PRES   REMARKS
ELIZABETH CITY CLEAR     72  62  71 NE10      29.86R
AHOSKIE*       CLEAR     70  64  82 CALM      29.87S
EDENTON*       PTCLDY    72  64  76 E5        29.86R
CURRITUCK*     CLEAR     73  61  67 NE7       29.87S
KILL DEVIL HLS CLEAR     71  64  79 N3        29.85R
MANTEO         PTCLDY    71  64  77 NE9       29.86R
CAPE HATTERAS  CLEAR     71  65  81 NE8G18    29.83R
TARBORO*       CLEAR     73  64  73 N3        29.88R
GOLDSBORO      SUNNY     76  68  74 CALM      29.84R
WASHINGTON     CLEAR     76  63  63 N6        29.85R
GREENVILLE     MOSUNNY   77  64  65 N6        29.88R
NEW BERN       MOSUNNY   78  63  59 N5        29.85R
WILMINGTON     PTSUNNY   80  65  59 N8        29.83R
$$

VAZ048-302300-
ELSEWHERE

CITY           SKY/WX    TMP DP  RH WIND       PRES   REMARKS
HARRISBURG PA  PTCLDY    69  61  75 SE5       29.86S
BALTIMORE      PTCLDY    74  58  57 SE5       29.86S
ANNAPOLIS      CLEAR     73  62  68 SE3       29.87R
ANDREWS AFB    CLEAR     73  58  59 E5        29.87S
WILMINGTON DE  CLEAR     73  60  63 S5        29.88F
PHILADELPHIA   MOCLDY    73  58  59 E14       29.89R
WILDWOOD NJ*   PTCLDY    70  57  64 E10       29.91R
ATLANTIC CITY  PTCLDY    67  60  78 E12       29.91S
HENDERSON NC   SUNNY     71  62  74 NE3       29.89S
GREENSBORO     MOSUNNY   78  58  49 CALM      29.87S
ROCKY MOUNT    SUNNY     72  64  76 N6        29.87S
FAYETTEVILLE   SUNNY     78  64  61 NE7       29.85S
CHARLOTTE      MOSUNNY   80  59  48 W3        29.88S
$$

VAZ100-302300-
MARINE

STATION/POSITION TIME  TEMP    WIND        PRES    WAVE   SWELL
                       AIR SEA DIR/SP/G            HT/PER HT/PER
                 (UTC) (F)     (DEG/KT/KT) (MB)    (FT/S) (FT/S)
44066 TX TWR #4  2200   67 69   50/ 16/ 19 1011.6F   3/ 5   2/14
CAPE MAY NJ      2200   69 74   70/  6/ 10 1011.7F
LEWES DE         2200   69 71  100/ 11/ 14 1011.7F
15NM E FENWICK I 2200   69 71              1011.8S   2/12
OCEAN-CITY-INLET 2200   70 72   90/  6/ 11 1011.5F
WACHAPREAGUE VA  2200   71 76   70/  6/  8 1011.4S
THOMAS POINT MD  2200   73 73  230/  2/  2 1012.4S
GOOSES REEF MD   2200   73     220/  2/  2 1011.9S
COVE POINT MD    2200   71     180/  3/  3 1011.2F
SOLOMONS ISLAND  2200      74                N/A
BISHOPS HEAD MD  2200   72 76  270/  6/  7 1011.0R
PINEY POINT MD   2200          150/  4/  5   N/A
POTOMAC MD       2200   72     160/  4/  4 1010.6R
CAMBRIDGE MD     2200   73 71  290/  5/  8 1010.9F
LEWISETTA VA     2200   72 72  100/  4/  4 1011.0R
RAPPAHANNOCK LGT 2200           70/  3/  4 1011.9S
STINGRAY PT      2200   73     100/  4/  4   N/A
YORK RVR RNG VA  2200   72      CALM  /  2 1010.8F
YORKTOWN VA      2200   72 72  100/  6/  8 1010.9S
JAMESTOWN VA     2200   73     200/  2/  2   N/A
DOMINION TERM VA 2200   71      90/  8/ 11 1011.4R
KIPTOPEKE VA     2200      76   70/  5/  7   N/A
CHES BAY BRIDGE  2200   71 72   40/  6/  7 1011.0R
CHESAPEAKE LGHT  2100   70      40/ 11/ 12 1011.7F
WILLOUBY STN VA  2200   71      60/  6/  7 1010.2R
S CRANEY ISL VA  2200           30/  6/  7 1011.1R
CAPE HENRY BUOY  2200      73                N/A     2/14   2/14
1ST LANDING BUOY 2200   72      60/  8/ 10 1011.0R
CAPE CHARLES BUO 2200      73                N/A     2/14   2/14
OFFSHORE WE BUOY 2200      73                N/A     2/14   2/ 7
64NM E OF VA BCH 2200   71 74   20/ 12/ 14 1010.3S   2/ 8   2/ 8
DUCK PIER NC     2200   71 73   30/ 10/ 12 1010.2F
44100 DUCK FRF   2200      73                N/A     2/14   2/14
44056 DUCK FRF   2200                        N/A     2/ 8
OREGON INLET NC  2200   72 73   20/  9/ 12 1010.6R
HATTERAS NC      2200   72 76   10/ 16/ 18 1010.6R
DIAMOND SHLS NC  2200   74     350/ 17/ 19 1009.4R   4/ 6   2/ 7
CAPE LOOKOUT NC  2100   75      40/ 13/ 15 1009.8R
$$


USA.gov is the U.S. government's official web portal to all federal, state and local government web resources and services.